^^
Station Historical Data
Daily Summary for January 8, 2018 Units:  Metric    English   Both
« Previous Day
Next Day »
Daily Weekly Monthly Yearly Custom
  High: Low: Average:
Temperature: -17.8 °C 15 °C 24.7 °C
Dew Point: -17.8 °C -3.3 °C 4 °C
Humidity: Humidity% 9% 31%
Wind Speed: 0km/h 0km/h 3.1km/h
Wind Gust: 0km/h - -
Wind- - SW
Pressure: 0 hPa 1007.3 hPa -
Precipitation: 0 mm    
Historical Graphs
 
 
Tabular Data for January 8, 2018
Time Temperature Dew Point Pressure Wind Wind Speed Wind Gust Humidity Rainfall Rate (Hourly) solar Conditions
-17.8 °C -17.8 °C 0 hPa Calm     Humidity% 0 mm SolarRadiationWatts/m^2 W/m2 Conditions
00:04 19.8 °C 7.2 °C 1021.2 hPa Calm     44% 0 mm 0.0 W/m2
00:14 19.5 °C 6.9 °C 1021.2 hPa Calm     44% 0 mm 0.0 W/m2
00:20 19.3 °C 7.1 °C 1021.2 hPa Calm     45% 0 mm 0.0 W/m2
00:25 19.2 °C 7.3 °C 1021.2 hPa Calm     46% 0 mm 0.0 W/m2
00:30 19 °C 7.1 °C 1021.2 hPa Calm     46% 0 mm 0.0 W/m2
00:36 18.8 °C 7.6 °C 1021.2 hPa Calm     48% 0 mm 0.0 W/m2
00:43 18.6 °C 7.4 °C 1021.2 hPa Calm     48% 0 mm 0.0 W/m2
00:49 18.4 °C 7.2 °C 1021.2 hPa Calm     48% 0 mm 0.0 W/m2
00:54 18.3 °C 7.4 °C 1021.2 hPa Calm     49% 0 mm 0.0 W/m2
01:00 18.1 °C 7.2 °C 1021.2 hPa Calm     49% 0 mm 0.0 W/m2
01:07 17.8 °C 7.2 °C 1021.2 hPa Calm     50% 0 mm 0.0 W/m2
01:16 17.7 °C 7.1 °C 1021.2 hPa Calm     50% 0 mm 0.0 W/m2
01:24 17.6 °C 7.3 °C 1020.9 hPa Calm     51% 0 mm 0.0 W/m2
01:26 17.6 °C 7.3 °C 1020.9 hPa Calm     51% 0 mm 0.0 W/m2
01:30 17.5 °C 7 °C 1020.9 hPa Calm     50% 0 mm 0.0 W/m2
01:36 17.4 °C 7.2 °C 1020.9 hPa Calm     51% 0 mm 0.0 W/m2
01:42 17.3 °C 7.1 °C 1020.9 hPa Calm     51% 0 mm 0.0 W/m2
01:48 17.3 °C 7.1 °C 1020.9 hPa Calm     51% 0 mm 0.0 W/m2
01:52 17.2 °C 7 °C 1020.9 hPa Calm     51% 0 mm 0.0 W/m2
01:54 17.2 °C 7 °C 1020.9 hPa Calm     51% 0 mm 0.0 W/m2
01:59 17.2 °C 7.3 °C 1020.9 hPa Calm     52% 0 mm 0.0 W/m2
02:04 17.1 °C 6.9 °C 1020.9 hPa Calm     51% 0 mm 0.0 W/m2
02:09 17 °C 7.1 °C 1020.9 hPa Calm     52% 0 mm 0.0 W/m2
02:17 16.9 °C 7 °C 1020.9 hPa Calm     52% 0 mm 0.0 W/m2
02:23 16.9 °C 7 °C 1020.9 hPa Calm     52% 0 mm 0.0 W/m2
02:28 16.8 °C 6.9 °C 1020.9 hPa Calm     52% 0 mm 0.0 W/m2
02:34 16.8 °C 6.9 °C 1020.9 hPa Calm     52% 0 mm 0.0 W/m2
02:38 16.7 °C 7.1 °C 1020.9 hPa Calm     53% 0 mm 0.0 W/m2
02:39 16.7 °C 7.1 °C 1020.9 hPa Calm     53% 0 mm 0.0 W/m2
02:44 16.7 °C 7.1 °C 1020.9 hPa Calm     53% 0 mm 0.0 W/m2
02:49 16.6 °C 7.3 °C 1020.5 hPa Calm     54% 0 mm 0.0 W/m2
02:57 16.4 °C 7.1 °C 1020.9 hPa Calm     54% 0 mm 0.0 W/m2
03:02 16.4 °C 6.8 °C 1020.5 hPa Calm     53% 0 mm 0.0 W/m2
03:08 16.4 °C 7.1 °C 1020.9 hPa Calm     54% 0 mm 0.0 W/m2
03:13 16.3 °C 7 °C 1020.5 hPa Calm     54% 0 mm 0.0 W/m2
03:19 16.3 °C 6.7 °C 1020.5 hPa Calm   1.6 km/h 53% 0 mm 0.0 W/m2
03:24 16.3 °C 6.7 °C 1020.5 hPa Calm     53% 0 mm 0.0 W/m2
03:30 16.3 °C 6.4 °C 1020.5 hPa Calm   1.6 km/h 52% 0 mm 0.0 W/m2
03:35 16.3 °C 6.7 °C 1020.5 hPa ESE 1.4 km/h 1.6 km/h 53% 0 mm 0.0 W/m2
03:44 16.3 °C 7 °C 1020.5 hPa SSE 1.4 km/h 1.6 km/h 54% 0 mm 0.0 W/m2
03:45 16.3 °C 7 °C 1020.5 hPa Calm   1.6 km/h 54% 0 mm 0.0 W/m2
03:51 16.2 °C 6.9 °C 1020.5 hPa Calm   3.2 km/h 54% 0 mm 0.0 W/m2
03:54 16.2 °C 6.9 °C 1020.5 hPa Calm     54% 0 mm 0.0 W/m2
03:57 16.2 °C 6.9 °C 1020.5 hPa Calm     54% 0 mm 0.0 W/m2
04:00 16.1 °C 7.1 °C 1020.5 hPa Calm   1.6 km/h 55% 0 mm 0.0 W/m2
04:05 16 °C 7 °C 1020.5 hPa Calm   1.6 km/h 55% 0 mm 0.0 W/m2
04:10 15.9 °C 6.9 °C 1020.5 hPa Calm     55% 0 mm 0.0 W/m2
04:12 15.9 °C 7.1 °C 1020.9 hPa Calm   1.6 km/h 56% 0 mm 0.0 W/m2
04:17 15.8 °C 6.5 °C 1020.9 hPa Calm   1.6 km/h 54% 0 mm 0.0 W/m2
04:20 15.8 °C 6.5 °C 1020.9 hPa Calm   1.6 km/h 54% 0 mm 0.0 W/m2
04:23 15.8 °C 6.5 °C 1020.9 hPa Calm   3.2 km/h 54% 0 mm 0.0 W/m2
04:25 15.8 °C 6.5 °C 1020.9 hPa Calm   1.6 km/h 54% 0 mm 0.0 W/m2
04:28 15.8 °C 6.5 °C 1020.9 hPa Calm   1.6 km/h 54% 0 mm 0.0 W/m2
04:34 15.8 °C 6.5 °C 1020.9 hPa Calm   1.6 km/h 54% 0 mm 0.0 W/m2
04:35 15.8 °C 6.5 °C 1020.9 hPa Calm   1.6 km/h 54% 0 mm 0.0 W/m2
04:40 15.8 °C 6.5 °C 1020.9 hPa Calm   1.6 km/h 54% 0 mm 0.0 W/m2
04:46 15.8 °C 6.5 °C 1020.9 hPa Calm     54% 0 mm 0.0 W/m2
04:53 15.8 °C 7 °C 1020.9 hPa Calm   1.6 km/h 56% 0 mm 0.0 W/m2
04:56 15.8 °C 7 °C 1021.2 hPa Calm     56% 0 mm 0.0 W/m2
05:00 15.7 °C 6.9 °C 1021.2 hPa Calm     56% 0 mm 0.0 W/m2
05:01 15.7 °C 6.9 °C 1021.2 hPa Calm     56% 0 mm 0.0 W/m2
05:06 15.6 °C 6.9 °C 1021.2 hPa Calm     56% 0 mm 0.0 W/m2
05:11 15.6 °C 7.1 °C 1021.2 hPa Calm   1.6 km/h 57% 0 mm 0.0 W/m2
05:13 15.5 °C 7 °C 1021.6 hPa Calm     57% 0 mm 0.0 W/m2
05:16 15.4 °C 6.9 °C 1021.2 hPa Calm     57% 0 mm 0.0 W/m2
05:21 15.3 °C 6.6 °C 1021.6 hPa Calm   3.2 km/h 56% 0 mm 0.0 W/m2
05:26 15.3 °C 6.6 °C 1021.6 hPa Calm     56% 0 mm 0.0 W/m2
05:32 15.3 °C 6.8 °C 1021.6 hPa Calm     57% 0 mm 0.0 W/m2
05:37 15.2 °C 6.7 °C 1021.6 hPa Calm   3.2 km/h 57% 0 mm 0.0 W/m2
05:42 15.2 °C 6.5 °C 1021.9 hPa Calm   4.8 km/h 56% 0 mm 0.0 W/m2
05:47 15.2 °C 6.5 °C 1021.9 hPa Calm   3.2 km/h 56% 0 mm 0.0 W/m2
05:52 15.2 °C 6.5 °C 1021.9 hPa Calm     56% 0 mm 0.0 W/m2
05:57 15.2 °C 6.2 °C 1021.9 hPa Calm   3.2 km/h 55% 0 mm 0.0 W/m2
06:02 15.3 °C 6.6 °C 1022.2 hPa Calm   1.6 km/h 56% 0 mm 0.0 W/m2
06:07 15.3 °C 6.6 °C 1022.2 hPa Calm     56% 0 mm 0.0 W/m2
06:13 15.2 °C 6.7 °C 1022.2 hPa Calm     57% 0 mm 0.0 W/m2
06:18 15.2 °C 6.7 °C 1022.2 hPa Calm     57% 0 mm 0.0 W/m2
06:23 15.1 °C 6.6 °C 1022.6 hPa Calm     57% 0 mm 7.0 W/m2
06:28 15.1 °C 6.6 °C 1022.6 hPa Calm   1.6 km/h 57% 0 mm 9.0 W/m2
06:33 15 °C 6.5 °C 1022.6 hPa Calm   1.6 km/h 57% 0 mm 11.0 W/m2
06:38 15 °C 6.5 °C 1022.6 hPa Calm     57% 0 mm 12.0 W/m2
06:43 15 °C 6.5 °C 1022.9 hPa Calm   1.6 km/h 57% 0 mm 14.0 W/m2
06:53 15.1 °C 7.1 °C 1022.9 hPa SE 1.4 km/h 1.6 km/h 59% 0 mm 18.0 W/m2
06:59 15.1 °C 7.4 °C 1022.9 hPa Calm     60% 0 mm 19.0 W/m2
07:04 15.2 °C 7 °C 1022.9 hPa Calm   1.6 km/h 58% 0 mm 21.0 W/m2
07:09 15.3 °C 7.3 °C 1023.2 hPa Calm     59% 0 mm 23.0 W/m2
07:14 15.3 °C 7.3 °C 1023.2 hPa Calm     59% 0 mm 25.0 W/m2
07:19 15.4 °C 7.9 °C 1023.2 hPa Calm     61% 0 mm 26.0 W/m2
07:24 15.6 °C 7.6 °C 1023.2 hPa Calm     59% 0 mm 26.0 W/m2
07:29 15.8 °C 7.6 °C 1023.2 hPa Calm     58% 0 mm 28.0 W/m2
07:34 16.1 °C 7.3 °C 1023.2 hPa Calm   1.6 km/h 56% 0 mm 28.0 W/m2
07:40 16.3 °C 7.8 °C 1023.2 hPa SE 1.4 km/h 1.6 km/h 57% 0 mm 30.0 W/m2
07:45 16.6 °C 7.8 °C 1023.2 hPa Calm     56% 0 mm 54.0 W/m2
07:50 16.9 °C 7.5 °C 1023.2 hPa Calm     54% 0 mm 200.0 W/m2
07:55 17.3 °C 7.3 °C 1023.2 hPa Calm     52% 0 mm 290.0 W/m2
08:00 17.9 °C 7.6 °C 1023.2 hPa Calm     51% 0 mm 366.0 W/m2
08:05 18.7 °C 7.5 °C 1023.2 hPa Calm     48% 0 mm 387.0 W/m2
08:10 19.4 °C 8.1 °C 1023.2 hPa Calm     48% 0 mm 406.0 W/m2
08:15 20 °C 7.4 °C 1023.2 hPa Calm     44% 0 mm 429.0 W/m2
08:21 20.7 °C 7 °C 1023.2 hPa Calm   1.6 km/h 41% 0 mm 450.0 W/m2
08:26 21.4 °C 7.2 °C 1023.6 hPa Calm     40% 0 mm 469.0 W/m2
08:31 22 °C 7 °C 1023.2 hPa Calm     38% 0 mm 487.0 W/m2
08:36 22.5 °C 6.7 °C 1023.6 hPa Calm     36% 0 mm 508.0 W/m2
08:41 22.9 °C 7.4 °C 1023.6 hPa Calm     37% 0 mm 527.0 W/m2
08:46 23.6 °C 6.8 °C 1023.6 hPa Calm     34% 0 mm 545.0 W/m2
08:51 24 °C 7.2 °C 1023.6 hPa Calm     34% 0 mm 566.0 W/m2
08:56 24.4 °C 7.1 °C 1023.6 hPa Calm   1.6 km/h 33% 0 mm 585.0 W/m2
09:02 24.7 °C 6.9 °C 1023.6 hPa Calm   1.6 km/h 32% 0 mm 603.0 W/m2
09:12 25.3 °C 6 °C 1023.6 hPa Calm     29% 0 mm 640.0 W/m2
09:17 25.7 °C 6.3 °C 1023.6 hPa Calm   1.6 km/h 29% 0 mm 656.0 W/m2
09:22 25.9 °C 6.5 °C 1023.6 hPa Calm   3.2 km/h 29% 0 mm 677.0 W/m2
09:27 26.1 °C 6.2 °C 1023.6 hPa NW 1.4 km/h 1.6 km/h 28% 0 mm 694.0 W/m2
09:32 26.3 °C 5.8 °C 1023.2 hPa Calm   1.6 km/h 27% 0 mm 712.0 W/m2
09:37 26.5 °C 5.4 °C 1023.2 hPa Calm   1.6 km/h 26% 0 mm 729.0 W/m2
09:43 27 °C 4.7 °C 1023.2 hPa NE 6.4 km/h 9.7 km/h 24% 0 mm 747.0 W/m2
09:48 27.4 °C 5 °C 1023.2 hPa Calm   4.8 km/h 24% 0 mm 761.0 W/m2
09:53 27.9 °C 4.9 °C 1023.2 hPa Calm   4.8 km/h 23% 0 mm 775.0 W/m2
09:58 28.3 °C 5.2 °C 1023.2 hPa SE 6.4 km/h 8 km/h 23% 0 mm 795.0 W/m2
10:03 28.4 °C 4 °C 1023.2 hPa Calm   4.8 km/h 21% 0 mm 809.0 W/m2
10:08 28.6 °C 4.1 °C 1023.2 hPa ESE 3.2 km/h 4.8 km/h 21% 0 mm 819.0 W/m2
10:13 28.9 °C 4.4 °C 1023.2 hPa South 4.7 km/h 8 km/h 21% 0 mm 838.0 W/m2
10:18 29 °C 2.3 °C 1023.2 hPa Calm   12.9 km/h 18% 0 mm 851.0 W/m2
10:23 29.1 °C 3.1 °C 1023.2 hPa SSW 3.2 km/h 6.4 km/h 19% 0 mm 867.0 W/m2
10:29 29 °C 3 °C 1023.2 hPa West 6.4 km/h 11.3 km/h 19% 0 mm 874.0 W/m2
10:34 28.7 °C 3.5 °C 1023.2 hPa West 1.4 km/h 4.8 km/h 20% 0 mm 893.0 W/m2
10:39 28.9 °C 3.7 °C 1023.2 hPa ESE 4.7 km/h 9.7 km/h 20% 0 mm 905.0 W/m2
10:44 29.2 °C 3.9 °C 1023.2 hPa ESE 4.7 km/h 11.3 km/h 20% 0 mm 918.0 W/m2
10:49 29.5 °C 3.4 °C 1022.9 hPa SSW 4.7 km/h 8 km/h 19% 0 mm 930.0 W/m2
10:54 29.4 °C 4.8 °C 1022.9 hPa WSW 4.7 km/h 4.8 km/h 21% 0 mm 940.0 W/m2
10:55 29.4 °C 4.1 °C 1022.9 hPa West 3.2 km/h 8 km/h 20% 0 mm 944.0 W/m2
10:59 29.4 °C 4.1 °C 1022.9 hPa NNW 4.7 km/h 6.4 km/h 20% 0 mm 951.0 W/m2
11:04 29.8 °C 2.9 °C 1022.9 hPa NNW 4.7 km/h 9.7 km/h 18% 0 mm 969.0 W/m2
11:09 30.1 °C 3.2 °C 1022.9 hPa Calm   14.5 km/h 18% 0 mm 969.0 W/m2
11:11 30.2 °C 3.3 °C 1022.9 hPa Calm   6.4 km/h 18% 0 mm 976.0 W/m2
11:14 30.3 °C 3.3 °C 1022.9 hPa WNW 4.7 km/h 6.4 km/h 18% 0 mm 984.0 W/m2
11:19 30.4 °C 2.6 °C 1022.9 hPa NNE 7.9 km/h 11.3 km/h 17% 0 mm 993.0 W/m2
11:21 30.4 °C 2.6 °C 1022.9 hPa North 4.7 km/h 11.3 km/h 17% 0 mm 993.0 W/m2
11:25 30.7 °C 2.9 °C 1022.9 hPa NW 3.2 km/h 9.7 km/h 17% 0 mm 1000.0 W/m2
11:31 30.8 °C 2.9 °C 1022.9 hPa NW 6.4 km/h 8 km/h 17% 0 mm 1011.0 W/m2
11:35 31 °C 2.2 °C 1022.6 hPa ENE 1.4 km/h 6.4 km/h 16% 0 mm 1021.0 W/m2
11:37 31 °C 3.1 °C 1022.9 hPa SSW 4.7 km/h 4.8 km/h 17% 0 mm 1028.0 W/m2
11:43 30.7 °C 2 °C 1022.6 hPa SW 1.4 km/h 12.9 km/h 16% 0 mm 1055.0 W/m2
11:50 30.6 °C 1.9 °C 1022.6 hPa SSW 7.9 km/h 11.3 km/h 16% 0 mm 1056.0 W/m2
11:55 30.5 °C 2.7 °C 1022.6 hPa SSW 6.4 km/h 12.9 km/h 17% 0 mm 1051.0 W/m2
12:01 30.3 °C 2.5 °C 1022.6 hPa WSW 3.2 km/h 11.3 km/h 17% 0 mm 1141.0 W/m2
12:06 30.3 °C 2.5 °C 1022.6 hPa SE 7.9 km/h 12.9 km/h 17% 0 mm 1199.0 W/m2
12:11 30.7 °C 2.9 °C 1022.6 hPa East 4.7 km/h 8 km/h 17% 0 mm 1248.0 W/m2
12:16 30.6 °C 2.8 °C 1022.6 hPa SW 1.4 km/h 4.8 km/h 17% 0 mm 234.0 W/m2
12:21 30.4 °C 2.6 °C 1022.6 hPa Calm   6.4 km/h 17% 0 mm 1202.0 W/m2
12:23 30.5 °C 2.7 °C 1022.6 hPa South 3.2 km/h 3.2 km/h 17% 0 mm 1211.0 W/m2
12:31 31.1 °C 3.2 °C 1022.2 hPa NNE 3.2 km/h 14.5 km/h 17% 0 mm 1190.0 W/m2
12:36 31.4 °C 3.4 °C 1022.2 hPa NNW 4.7 km/h 11.3 km/h 17% 0 mm 1232.0 W/m2
12:41 31.8 °C 4.6 °C 1022.2 hPa NNW 6.4 km/h 12.9 km/h 18% 0 mm 237.0 W/m2
12:46 31.8 °C 2.9 °C 1022.2 hPa NE 6.4 km/h 17.7 km/h 16% 0 mm 1202.0 W/m2
12:47 31.7 °C 3.7 °C 1022.2 hPa NE 7.9 km/h 17.7 km/h 17% 0 mm 1202.0 W/m2
12:52 31.7 °C 2.8 °C 1021.9 hPa North 11.1 km/h 17.7 km/h 16% 0 mm 1172.0 W/m2
13:01 32.3 °C 2.4 °C 1021.9 hPa West 9.7 km/h 22.5 km/h 15% 0 mm 1121.0 W/m2
13:02 32.4 °C 1.5 °C 1021.9 hPa WNW 3.2 km/h 22.5 km/h 14% 0 mm 1109.0 W/m2
13:07 32.8 °C 0.8 °C 1021.9 hPa West 6.4 km/h 16.1 km/h 13% 0 mm 1113.0 W/m2
13:12 32.4 °C 0.5 °C 1022.2 hPa North 6.4 km/h 14.5 km/h 13% 0 mm 1104.0 W/m2
13:17 32.4 °C 0.5 °C 1022.2 hPa North 6.4 km/h 14.5 km/h 13% 0 mm 1104.0 W/m2
13:22 32.8 °C 0.8 °C 1021.9 hPa WNW 1.4 km/h 12.9 km/h 13% 0 mm 1099.0 W/m2
13:27 33.2 °C -1.2 °C 1021.9 hPa North 1.4 km/h 12.9 km/h 11% 0 mm 1095.0 W/m2
13:29 33.2 °C -1.2 °C 1021.9 hPa West 3.2 km/h 11.3 km/h 11% 0 mm 1093.0 W/m2
13:32 33.3 °C -1.1 °C 1021.9 hPa WNW 3.2 km/h 12.9 km/h 11% 0 mm 1102.0 W/m2
13:43 33.3 °C 0 °C 1021.9 hPa NW 1.4 km/h 4.8 km/h 12% 0 mm 1078.0 W/m2
13:48 33.1 °C -0.1 °C 1021.9 hPa Calm   12.9 km/h 12% 0 mm 1069.0 W/m2
13:54 33.2 °C 0 °C 1021.9 hPa SSW 7.9 km/h 19.3 km/h 12% 0 mm 1065.0 W/m2
13:58 33.2 °C -1.2 °C 1021.9 hPa WSW 11.1 km/h 16.1 km/h 11% 0 mm 1063.0 W/m2
14:03 32.8 °C -0.3 °C 1021.9 hPa SW 9.7 km/h 22.5 km/h 12% 0 mm 1055.0 W/m2
14:06 32.8 °C -0.3 °C 1021.9 hPa WSW 7.9 km/h 16.1 km/h 12% 0 mm 1056.0 W/m2
14:08 32.8 °C -0.3 °C 1021.9 hPa NNW 1.4 km/h 12.9 km/h 12% 0 mm 1049.0 W/m2
14:13 32.8 °C -0.3 °C 1021.6 hPa SW 4.7 km/h 12.9 km/h 12% 0 mm 1058.0 W/m2
14:20 33.3 °C 0 °C 1021.6 hPa West 1.4 km/h 9.7 km/h 12% 0 mm 1069.0 W/m2
14:26 33.7 °C -0.8 °C 1021.6 hPa WNW 7.9 km/h 11.3 km/h 11% 0 mm 1028.0 W/m2
14:28 33.8 °C -0.8 °C 1021.6 hPa WSW 1.4 km/h 9.7 km/h 11% 0 mm 1034.0 W/m2
14:34 33.8 °C -0.8 °C 1021.6 hPa WSW 14.3 km/h 22.5 km/h 11% 0 mm 1025.0 W/m2
14:39 33.6 °C 0.3 °C 1021.6 hPa WSW 6.4 km/h 14.5 km/h 12% 0 mm 1007.0 W/m2
14:48 33.6 °C -0.9 °C 1021.6 hPa WSW 6.4 km/h 11.3 km/h 11% 0 mm 984.0 W/m2
14:49 33.7 °C -0.8 °C 1021.6 hPa SW 6.4 km/h 16.1 km/h 11% 0 mm 981.0 W/m2
14:54 33.4 °C -1.1 °C 1021.6 hPa West 4.7 km/h 12.9 km/h 11% 0 mm 970.0 W/m2
14:59 33.3 °C -1.1 °C 1021.2 hPa SE 7.9 km/h 11.3 km/h 11% 0 mm 956.0 W/m2
15:00 33.3 °C -1.1 °C 1021.2 hPa Calm   14.5 km/h 11% 0 mm 951.0 W/m2
15:04 33.5 °C -1 °C 1021.6 hPa West 3.2 km/h 8 km/h 11% 0 mm 939.0 W/m2
15:05 33.6 °C -0.9 °C 1021.2 hPa North 7.9 km/h 11.3 km/h 11% 0 mm 932.0 W/m2
15:09 33.7 °C -2.1 °C 1021.2 hPa NW 6.4 km/h 8 km/h 10% 0 mm 925.0 W/m2
15:15 33.9 °C -2 °C 1021.2 hPa Calm   14.5 km/h 10% 0 mm 918.0 W/m2
15:18 34.1 °C -3.3 °C 1020.9 hPa Calm   14.5 km/h 9% 0 mm 912.0 W/m2
15:20 34.2 °C -3.2 °C 1020.9 hPa NNW 6.4 km/h 22.5 km/h 9% 0 mm 907.0 W/m2
15:25 34.3 °C -3.1 °C 1020.9 hPa West 9.7 km/h 12.9 km/h 9% 0 mm 891.0 W/m2
15:30 34.1 °C -1.8 °C 1021.2 hPa WSW 14.3 km/h 19.3 km/h 10% 0 mm 874.0 W/m2
15:35 34.1 °C -1.8 °C 1021.2 hPa SW 6.4 km/h 25.7 km/h 10% 0 mm 867.0 W/m2
15:40 33.7 °C -0.8 °C 1021.2 hPa WNW 7.9 km/h 19.3 km/h 11% 0 mm 849.0 W/m2
15:42 33.7 °C -0.8 °C 1021.2 hPa West 4.7 km/h 12.9 km/h 11% 0 mm 842.0 W/m2
15:45 33.7 °C -0.8 °C 1020.9 hPa West 4.7 km/h 14.5 km/h 11% 0 mm 835.0 W/m2
15:50 33.7 °C -2.1 °C 1020.9 hPa NNW 1.4 km/h 6.4 km/h 10% 0 mm 816.0 W/m2
15:55 33.8 °C -0.8 °C 1020.9 hPa SW 4.7 km/h 8 km/h 11% 0 mm 795.0 W/m2
16:01 33.7 °C -0.8 °C 1020.5 hPa WSW 13 km/h 13 km/h 11% 0 mm 779.0 W/m2
16:06 33.8 °C -0.8 °C 1020.5 hPa NNW 3.2 km/h 6.4 km/h 11% 0 mm 768.0 W/m2
16:11 34.2 °C -1.8 °C 1020.5 hPa NNW 7.9 km/h 11.3 km/h 10% 0 mm 63.0 W/m2
16:16 34.1 °C -1.8 °C 1020.5 hPa WSW 3.2 km/h 12.9 km/h 10% 0 mm 585.0 W/m2
16:21 33.6 °C -0.9 °C 1020.5 hPa WSW 6.4 km/h 22.5 km/h 11% 0 mm 733.0 W/m2
16:26 33.2 °C -2.5 °C 1020.2 hPa WNW 4.7 km/h 9.7 km/h 10% 0 mm 691.0 W/m2
16:31 33.2 °C -1.2 °C 1020.5 hPa SSW 3.2 km/h 19.3 km/h 11% 0 mm 684.0 W/m2
16:36 33.4 °C -1.1 °C 1020.2 hPa SE 4.7 km/h 11.3 km/h 11% 0 mm 664.0 W/m2
16:41 33.6 °C -2.2 °C 1020.2 hPa Calm   1.6 km/h 10% 0 mm 606.0 W/m2
16:47 33.8 °C 0.4 °C 1020.2 hPa Calm   20.9 km/h 12% 0 mm 652.0 W/m2
16:57 34.2 °C 0.7 °C 1020.2 hPa Calm   4.8 km/h 12% 0 mm 615.0 W/m2
17:02 34.3 °C -0.4 °C 1020.2 hPa Calm   1.6 km/h 11% 0 mm 594.0 W/m2
17:05 34.4 °C -0.3 °C 1019.9 hPa SSW 4.7 km/h 11.3 km/h 11% 0 mm 582.0 W/m2
17:07 34.2 °C -1.8 °C 1019.9 hPa SSW 4.7 km/h 12.9 km/h 10% 0 mm 577.0 W/m2
17:12 34 °C -0.6 °C 1019.9 hPa West 3.2 km/h 9.7 km/h 11% 0 mm 473.0 W/m2
17:17 33.7 °C 0.4 °C 1019.9 hPa Calm   3.2 km/h 12% 0 mm 100.0 W/m2
17:22 33.3 °C 0 °C 1019.9 hPa SW 1.4 km/h 17.7 km/h 12% 0 mm 541.0 W/m2
17:27 32.8 °C 0.8 °C 1019.9 hPa SW 4.7 km/h 11.3 km/h 13% 0 mm 527.0 W/m2
17:32 32.8 °C 2.8 °C 1019.9 hPa SW 4.7 km/h 9.7 km/h 15% 0 mm 503.0 W/m2
17:37 32.8 °C 1.8 °C 1019.9 hPa WSW 13 km/h 13 km/h 14% 0 mm 457.0 W/m2
17:43 32.8 °C 1.8 °C 1019.9 hPa WSW 7.9 km/h 19.3 km/h 14% 0 mm 434.0 W/m2
17:48 32.8 °C 1.8 °C 1019.9 hPa WSW 13 km/h 17.7 km/h 14% 0 mm 415.0 W/m2
17:53 32.6 °C 1.6 °C 1019.9 hPa West 7.9 km/h 16.1 km/h 14% 0 mm 387.0 W/m2
17:58 32.6 °C 1.6 °C 1019.9 hPa WSW 7.9 km/h 14.5 km/h 14% 0 mm 364.0 W/m2
18:03 32.4 °C 1.5 °C 1019.9 hPa WNW 3.2 km/h 20.9 km/h 14% 0 mm 332.0 W/m2
18:08 32.1 °C 1.2 °C 1019.9 hPa WSW 4.7 km/h 22.5 km/h 14% 0 mm 309.0 W/m2
18:13 31.7 °C 1.9 °C 1019.9 hPa WSW 16.3 km/h 22.5 km/h 15% 0 mm 290.0 W/m2
18:18 31.6 °C 1.8 °C 1019.9 hPa WSW 6.4 km/h 20.9 km/h 15% 0 mm 269.0 W/m2
18:26 31.6 °C 1.8 °C 1020.2 hPa WSW 16.3 km/h 16.3 km/h 15% 0 mm 237.0 W/m2
18:35 31.4 °C 1.7 °C 1020.2 hPa West 7.9 km/h 14.5 km/h 15% 0 mm 199.0 W/m2
18:40 31.2 °C 1.5 °C 1020.2 hPa WSW 11.1 km/h 16.1 km/h 15% 0 mm 178.0 W/m2
18:46 30.9 °C 1.3 °C 1020.2 hPa SW 13 km/h 20.9 km/h 15% 0 mm 121.0 W/m2
18:51 30.6 °C 1.9 °C 1020.2 hPa West 9.7 km/h 12.9 km/h 16% 0 mm 32.0 W/m2
18:52 30.5 °C 1.8 °C 1020.2 hPa WNW 6.4 km/h 14.5 km/h 16% 0 mm 30.0 W/m2
18:58 30.2 °C 1.6 °C 1020.5 hPa SW 3.2 km/h 11.3 km/h 16% 0 mm 28.0 W/m2
19:05 29.8 °C 2.1 °C 1020.5 hPa SW 7.9 km/h 17.7 km/h 17% 0 mm 25.0 W/m2
19:10 29.6 °C 2 °C 1020.5 hPa SSW 7.9 km/h 16.1 km/h 17% 0 mm 21.0 W/m2
19:17 29.3 °C 2.5 °C 1020.5 hPa WSW 1.4 km/h 9.7 km/h 18% 0 mm 16.0 W/m2
19:23 29.1 °C 2.4 °C 1020.9 hPa WSW 6.4 km/h 12.9 km/h 18% 0 mm 12.0 W/m2
19:29 28.8 °C 2.9 °C 1020.9 hPa WSW 17.7 km/h 17.7 km/h 19% 0 mm 11.0 W/m2
19:33 28.6 °C 3.4 °C 1020.9 hPa SW 6.4 km/h 19.3 km/h 20% 0 mm 7.0 W/m2
19:34 28.6 °C 3.4 °C 1020.9 hPa South 14.3 km/h 17.7 km/h 20% 0 mm 7.0 W/m2
19:40 28.3 °C 3.9 °C 1020.9 hPa SW 3.2 km/h 17.7 km/h 21% 0 mm 5.0 W/m2
19:45 28.1 °C 3.7 °C 1021.2 hPa WSW 14.3 km/h 14.5 km/h 21% 0 mm 0.0 W/m2
19:50 27.9 °C 4.2 °C 1021.2 hPa SSW 11.1 km/h 17.7 km/h 22% 0 mm 0.0 W/m2
19:55 27.6 °C 4.6 °C 1021.6 hPa SSW 4.7 km/h 14.5 km/h 23% 0 mm 0.0 W/m2
20:00 27.4 °C 4.4 °C 1021.6 hPa SW 11.1 km/h 16.1 km/h 23% 0 mm 0.0 W/m2
20:06 27.1 °C 4.8 °C 1021.6 hPa SW 7.9 km/h 11.3 km/h 24% 0 mm 0.0 W/m2
20:08 27.1 °C 4.8 °C 1021.6 hPa West 4.7 km/h 16.1 km/h 24% 0 mm 0.0 W/m2
20:13 26.8 °C 4.5 °C 1021.6 hPa WSW 6.4 km/h 14.5 km/h 24% 0 mm 0.0 W/m2
20:23 26.4 °C 4.8 °C 1021.6 hPa WSW 7.9 km/h 14.5 km/h 25% 0 mm 0.0 W/m2
20:28 26.2 °C 4.6 °C 1021.6 hPa WSW 3.2 km/h 12.9 km/h 25% 0 mm 0.0 W/m2
20:33 26.1 °C 4.5 °C 1021.6 hPa WSW 14.3 km/h 22.5 km/h 25% 0 mm 0.0 W/m2
20:38 25.9 °C 4.4 °C 1021.9 hPa SSW 11.1 km/h 14.5 km/h 25% 0 mm 0.0 W/m2
20:39 25.9 °C 4.9 °C 1021.9 hPa SW 6.4 km/h 14.5 km/h 26% 0 mm 0.0 W/m2
20:47 25.7 °C 4.8 °C 1021.9 hPa SW 4.7 km/h 12.9 km/h 26% 0 mm 0.0 W/m2
20:52 25.7 °C 4.8 °C 1021.9 hPa Calm   9.7 km/h 26% 0 mm 0.0 W/m2
20:57 25.6 °C 4.7 °C 1022.2 hPa SSE 4.7 km/h 8 km/h 26% 0 mm 0.0 W/m2
21:04 25.3 °C 5 °C 1022.2 hPa Calm   12.9 km/h 27% 0 mm 0.0 W/m2
21:10 25.2 °C 4.9 °C 1022.2 hPa Calm   11.3 km/h 27% 0 mm 0.0 W/m2
21:16 25.1 °C 4.8 °C 1022.2 hPa WSW 3.2 km/h 8 km/h 27% 0 mm 0.0 W/m2
21:22 24.9 °C 4.6 °C 1022.2 hPa SSW 4.7 km/h 12.9 km/h 27% 0 mm 0.0 W/m2
21:28 24.7 °C 5 °C 1022.2 hPa SSW 4.7 km/h 6.4 km/h 28% 0 mm 0.0 W/m2
21:34 24.6 °C 4.9 °C 1022.2 hPa SSW 4.7 km/h 11.3 km/h 28% 0 mm 0.0 W/m2
21:40 24.4 °C 4.7 °C 1022.2 hPa SSW 4.7 km/h 11.3 km/h 28% 0 mm 0.0 W/m2
21:45 24.3 °C 5.1 °C 1022.2 hPa SW 4.7 km/h 8 km/h 29% 0 mm 0.0 W/m2
21:55 24.2 °C 5 °C 1022.6 hPa SW 6.4 km/h 14.5 km/h 29% 0 mm 0.0 W/m2
21:58 24.2 °C 5 °C 1022.6 hPa WSW 3.2 km/h 8 km/h 29% 0 mm 0.0 W/m2
22:00 24.1 °C 5 °C 1022.6 hPa West 9.7 km/h 11.3 km/h 29% 0 mm 0.0 W/m2
22:03 24.1 °C 5.4 °C 1022.6 hPa Calm   19.3 km/h 30% 0 mm 0.0 W/m2
22:06 24 °C 5.4 °C 1022.6 hPa SSW 1.4 km/h 4.8 km/h 30% 0 mm 0.0 W/m2
22:08 23.9 °C 5.3 °C 1022.6 hPa West 1.4 km/h 9.7 km/h 30% 0 mm 0.0 W/m2
22:13 23.8 °C 5.2 °C 1022.6 hPa SW 3.2 km/h 6.4 km/h 30% 0 mm 0.0 W/m2
22:18 23.8 °C 5.2 °C 1022.6 hPa Calm   6.4 km/h 30% 0 mm 0.0 W/m2
22:23 23.7 °C 5.1 °C 1022.9 hPa Calm     30% 0 mm 0.0 W/m2
22:28 23.6 °C 5 °C 1022.9 hPa Calm     30% 0 mm 0.0 W/m2
22:33 23.6 °C 5 °C 1022.9 hPa Calm   3.2 km/h 30% 0 mm 0.0 W/m2
22:38 23.4 °C 4.8 °C 1022.9 hPa Calm   1.6 km/h 30% 0 mm 0.0 W/m2
22:43 23.2 °C 4.7 °C 1022.9 hPa Calm     30% 0 mm 0.0 W/m2
22:47 23.1 °C 5 °C 1022.9 hPa Calm   1.6 km/h 31% 0 mm 0.0 W/m2
22:48 23.1 °C 5 °C 1022.9 hPa Calm   1.6 km/h 31% 0 mm 0.0 W/m2
22:53 22.9 °C 4.9 °C 1022.9 hPa Calm   3.2 km/h 31% 0 mm 0.0 W/m2
22:58 22.7 °C 4.7 °C 1023.2 hPa Calm   1.6 km/h 31% 0 mm 0.0 W/m2
23:03 22.6 °C 5.1 °C 1023.2 hPa SW 1.4 km/h 1.6 km/h 32% 0 mm 0.0 W/m2
23:08 22.4 °C 4.4 °C 1023.2 hPa Calm     31% 0 mm 0.0 W/m2
23:13 22.4 °C 4.9 °C 1023.2 hPa Calm   3.2 km/h 32% 0 mm 0.0 W/m2
23:18 22.3 °C 5.2 °C 1023.2 hPa Calm   1.6 km/h 33% 0 mm 0.0 W/m2
23:23 22.2 °C 5.2 °C 1007.3 hPa Calm     33% 0 mm 0.0 W/m2
23:28 22.1 °C 5.5 °C 1023.2 hPa Calm     34% 0 mm 0.0 W/m2
23:39 21.9 °C 4.9 °C 1023.2 hPa SE 6.4 km/h 12.9 km/h 33% 0 mm 0.0 W/m2
23:44 22.1 °C 4.6 °C 1023.2 hPa South 7.9 km/h 11.3 km/h 32% 0 mm 0.0 W/m2
23:49 22.2 °C 4.7 °C 1023.2 hPa SE 1.4 km/h 4.8 km/h 32% 0 mm 0.0 W/m2
23:54 22.3 °C 4.8 °C 1023.2 hPa SSE 3.2 km/h 9.7 km/h 32% 0 mm 0.0 W/m2
23:59 22.3 °C 4.8 °C 1023.2 hPa SSE 9.7 km/h 9.7 km/h 32% 0 mm 0.0 W/m2
Olympia, Windhoek, Namibia
Compliments of Weather Underground - 3.5 mb